Hourly Data Report for March 06, 2017

MIRAMICHI RCS
NEW BRUNSWICK

47°00'34.000" N
65°27'54.000" W
33.00 m
8100989
71744
ACQ

Download Data

Hourly Data (March 2017)
Hourly Data Report for March 6, 2017
TIME
LST
Temp Definition
°C
Dew Point Definition
°C
Rel Hum Definition
%
Precip. Amount Definition
mm

Wind Dir Definition
10's deg

Wind Spd Definition
km/h
Visibility Definition
km
Stn Press Definition
kPa
Hmdx Definition


Wind Chill Definition


Weather Definition


00:00 -10.6 -18.7 51 0.0 31 13   101.93   -17 LegendNANA
01:00 -10.8 -18.6 53 0.0 31 12   101.96   -17 LegendNANA
02:00 -11.1 -18.8 53 0.0 31 12   101.98   -17 LegendNANA
03:00 -11.3 -18.8 54 0.0 31 12   102.02   -17 LegendNANA
04:00 -11.5 -18.6 56 0.0 32 15   102.03   -19 LegendNANA
05:00 -11.6 -18.5 56 0.0 32 14   102.06   -18 LegendNANA
06:00 -12.2 -18.5 59 0.0 28 8   102.14   -17 LegendNANA
07:00 -11.9 -18.5 58 0.0 31 6   102.23   -16 LegendNANA
08:00 -11.1 -18.1 56 0.0 31 8   102.32   -16 LegendNANA
09:00 -8.8 -17.6 49 0.0 33 6   102.39   -12 LegendNANA
10:00 -6.7 -16.6 45 0.0 34 6   102.44   -10 LegendNANA
11:00 -4.3 -15.6 41 0.0 33 2   102.42   -5 LegendNANA
12:00 -2.8 -13.9 42 0.0 8 5   102.43   -5 LegendNANA
13:00 -2.3 -12.5 45 0.0 15 6   102.41   -5 LegendNANA
14:00 -0.7 -12.2 41 0.0 18 6   102.37   -3 LegendNANA
15:00 0.2 -11.2 42 0.0 18 4   102.37     LegendNANA
16:00 1.0 -11.3 39 0.0 10 4   102.39     LegendNANA
17:00 0.1 -8.7 52 0.0 9 9   102.42     LegendNANA
18:00 -1.3 -10.1 51 0.0 6 6   102.49   -4 LegendNANA
19:00 -5.0 -9.5 70 0.0 7 6   102.55   -8 LegendNANA
20:00 -4.8 -10.3 65 0.0 0 1   102.57   -5 LegendNANA
21:00 -6.8 -10.2 77 0.0 32 1   102.61   -7 LegendNANA
22:00 -8.4 -11.0 81 0.0   0   102.64     LegendNANA
23:00 -9.1 -11.3 84 0.0   0   102.67     LegendNANA

Notes on Data Quality.

Legend

  • E = Estimated
  • M = Missing
  • NA = Not Available*
  • [empty] = Indicates an unobserved value
Date modified: